Погода в Черлаке

Погода в Черлаке : погода сейчас, прогноз погоды и архив. Всё, что Вы хотите узнать о погоде в Черлаке!

Хотите узнать прогноз погоды в Черлаке? Тогда Вам сюда: Погода в Черлаке

Поиск расширенной информации на нашем сайте:

Другие новости

Новости СМИ2

Главная страница сайта

Новости сайта

03.07.2017

Напоминаем, что на нашем специализированном сайте Метеоцентр.Азия вы можете получить высокодетализированные автоматические прогнозы погоды по пунктам России, СНГ и мира в авиационном формате (включающие направление и скорость ветра, видимость, явления погоды, количество и форму облачности, нижнюю и верхнюю границу облачности).


Погода в Черлаке - сегодня

Время (UTC), дата Ветер
(°,м/с) 
Видим.   Явления Облачность Т
(°С)
Тd
(°С)
f(%) Тe
(°С)
Pmin
(гПа)
dP
(гПа)
Po
(мм)
O2
(г/м3)
Тmin Tmax R s Состояние
почвы
18 11.08.18 230 (ЮЗ) 4000 м  слаб. ливневой дождь  10/10 300 м кучево-дожд. 
[Cb cap]
+14.7 +14.4 98 +23  994.9  -2  736  278           
03 12.08.18 310 (СЗ) 4-10{10}  10 км  слаб. морось  10/10 300 м 
[Frnb|Ns]
+10.3 +9.5 95 +10  996.9  1.2  737  285  +9.9       
15 12.08.18 340 (С) 5-10{12}  20000 м  {ливн. осадки}  10/10 300 м кучево-дожд. 
[Cb cap]
+12.2 +9.8 85 +12  1006.7  3.5  745  285    +12.6     
21 12.08.18 360 (С) 10 км    ясно 
+9.7 +8.1 90 +9  1010.3  1.3  747  289           
00 13.08.18 340 (С) 20000 м    8/5 1000 м верхняя 
[Sc|Ci fib]
+8 +7.2 95 +9  1012.8  2.4  749  292           
03 13.08.18 340 (С) 20000 м    8/0 средняя, верхняя 
[Ac trans|Ci fib]
+14.1 +8.3 68 +15  1014.5  751  286  +7.9         
06 13.08.18 320 (СЗ) 20000 м    8/5 1000 м верхняя 
[Cu hum|Ci fib]
+17.3 +8.6 57 +18  1015.3  0.9  751  283           
09 13.08.18 300 (СЗ) 20000 м    6/6 1000 м 
[Cu hum]
+20.2 +8.8 48 +20  1015.9  0.7  752  281           
12 13.08.18 220 (ЮЗ) 20000 м    3/3 1000 м 
[Cu hum]
+20.5 +8.6 46 +21  1015.9  0.1  752  280           
15 13.08.18 150 (ЮВ) 20000 м    3/0 верхняя 
[Cs]
+15.3 +10.4 73 +19  1016.9  0.7  752  285    +20.8       
18 13.08.18 170 (Ю) 10 км    ясно 
+12.9 +9.6 80 +14  1017.8  0.8  753  288           
21 13.08.18 170 (Ю) 10 км    ясно 
+12.1 +9.6 85 +13  1018.5  0.6  753  289           
00 14.08.18 180 (Ю) 20000 м    3/0 средняя 
[Ac trans]
+11.6 +9.1 85 +11  1019.3  0.8  754  290           
03 14.08.18 170 (Ю) 20000 м    4/0 средняя, верхняя 
[Ac trans|Ci fib]
+16.6 +10.7 68 +19  1019.6  0.5  754  285  +10.5         
06 14.08.18 170 (Ю) 20000 м    3/0 средняя 
[Ac lent]
+22.3 +10.4 47 +24  1019.1  -0.2  754  279           
09 14.08.18 150 (ЮВ) 20000 м    3/0 средняя 
[Ac lent]
+24.5 +10.6 42 +26  1018.3  -0.7  754  277           
12 14.08.18 170 (Ю) 20000 м    ясно 
+24.8 +11.4 43 +28  1017.4  -0.8  753  276           
15 14.08.18 090 (В) 20000 м    ясно 
+19.5 +11.9 61 +25  1017.5  -0.1  753  281    +25.1       
18 14.08.18 110 (В) 10 км    ясно 
+15.5 +10.5 72 +18  1017.6  0.1  753  285           
21 14.08.18 110 (В) 10 км    ясно 
+13.5 +9.9 79 +15  1016.4  -1.3  752  287           
00 15.08.18 110 (В) 20000 м    ясно 
+11.9 +9.8 87 +13  1015.5  -0.9  751  288           
03 15.08.18 150 (ЮВ) 20000 м    3/0 верхняя 
[Ci fib]
+19.6 +11.9 61 +24  1014.8  -0.3  751  280  +11.5         
12 15.08.18 150 (ЮВ) 4{10}  20000 м    8/0 верхняя 
[Ci fib]
+27.5 +9.3 32 +28  1010.6  -1  748  272           
15 15.08.18 100 (В) 20000 м    10/0 средняя, верхняя 
[Ac lent|Cs]
+22.9 +8.9 41 +23  1010.2  -0.5  748  276    +28.4       
18 15.08.18 140 (ЮВ) 10 км    4/0 верхняя 
[Cs]
+20.1 +9.2 49 +20  1009.4  -0.9  747  279           
Время (UTC), дата Ветер
(°,м/с) 
Видим.   Явления Облачность Т
(°С)
Тd
(°С)
f(%) Тe
(°С)
Pmin
(гПа)
dP
(гПа)
Po
(мм)
O2
(г/м3)
Тmin Tmax R s Состояние
почвы

Для получения пояснительной информации подведите курсор к названию столбца.

ПОГОДА в Черлаке - архив

Всё, что Вы хотите узнать о погоде в Черлаке - удобно и подробно!

Выберите нужную дату (начиная с 1 января 2015* года) и нажмите кнопку "Найти".
Будут отображены архивные сводки погоды по пункту Черлак, начиная с указанной даты.


Отображать данные в формате CSV (для использования в таблицах Excel)


Внимание! Наш архив погоды предназначен исключительно для личного некоммерческого использования в познавательных целях. Если Вам необходимы официальные справки о состоянии погоды (для производственных, юридических, коммерческих и т.п. целей), обращайтесь в органы Росгидромета.

*Примечание: данная дата относится к архиву по метеостанциям СССР (Россия, СНГ, Балтия).
Архив по метеостанциям Зарубежной Европы и Азии (кроме Китая) хранится 10 дней, по другим регионам земного шара (Китай, Африка, Америка, Австралия, Океания) - 1 день.

Черлак - район местоположения метеостанции


Название, широта, долгота, высота метеостанции:
Черлак 54.2°ш. 74.8°д. 115 м над ур. моря [Российская Федерация]

Дополнительная информация

В oтличие oт бoльшинства пoгoдных сайтoв мы публикуем пoдрoбную метеoинфoрмацию в детальнoм прoфессиoнальнoм фoрмате.

Характеристики температуры и влажнoсти вoздуха измеряются на высoте 2 м в тени вдали oт зданий и деревьев.
Скoрoсть ветра измеряется на высoте 10 м (на урoвне рoста челoвека скoрoсть ветра ниже в 1.5-2 раза). Если метеoстанция нахoдится в гoрoде или в лесу, тo скoрoсть ветра занижена на 2-4 м/с пo сравнению с oткрытым местoм. Скoрoсть ветра над акватoриями крупных рек и oзёр, а также на вершинах хoлмoв на 2-5 м/с выше, чем в oбычных услoвиях.
Атмoсфернoе давление в разных тoчках местнoсти мoжет значительнo oтличаться oт давления на метеoстанции, в зависимoсти oт услoвий рельефа (при пoдъёме на 10 м давление пoнижается примернo на 1 мм рт.ст.).